Flight Track Log - Related Links

Times and Time Zones

All times are in EDT time to prevent confusion due to time zone crossing. See the SWA896 flight status page for this flight to view local times or setup timezone preferences in your user account.

Time Position Orientation Groundspeed Altitude Reporting Facility
EDT Latitude Longitude Course Direction KTS MPH feet Rate Location/Type
Fri 01:47:45 PM 36.0753 -115.1844 263° West 181 208 3,400  Level Los Angeles Center
Fri 01:48:40 PM 36.0689 -115.2450 263° West 225 259 5,000 1,535 Climbing Los Angeles Center
Fri 01:49:11 PM 36.0461 -115.2650 215° Southwest 239 275 5,600 1,837 Climbing Los Angeles Center
Fri 01:49:29 PM 36.0142 -115.2817 203° Southwest 281 323 6,500 1,355 Climbing Los Angeles Center
Fri 01:50:13 PM 35.9725 -115.3019 201° Southwest 278 320 7,000 1,642 Climbing Los Angeles Center
Fri 01:51:15 PM 35.9136 -115.3708 223° Southwest 285 328 9,400 1,935 Climbing Los Angeles Center
Fri 01:52:17 PM 35.8878 -115.4669 252° West 307 353 11,000 774 Climbing Los Angeles Center
Fri 01:53:19 PM 35.8892 -115.6094 271° West 347 399 11,000 677 Level Los Angeles Center
Fri 01:54:21 PM 35.8917 -115.7294 272° West 352 405 12,400 2,274 Climbing Los Angeles Center
Fri 01:55:23 PM 35.9011 -115.8603 275° West 357 411 15,700 2,661 Climbing Los Angeles Center
Fri 01:56:25 PM 35.9583 -115.9408 311° West 369 425 17,900 2,496 Climbing Los Angeles Center
Fri 01:57:28 PM 36.0483 -116.0581 314° West 382 440 20,900 2,448 Climbing Los Angeles Center
Fri 01:58:30 PM 36.1242 -116.1586 313° West 396 456 23,000 1,839 Climbing Los Angeles Center
Fri 01:59:32 PM 36.1961 -116.2536 313° West 404 465 24,700 1,597 Climbing Los Angeles Center
Fri 02:00:34 PM 36.2758 -116.3592 313° West 413 475 26,300 1,632 Climbing Los Angeles Center
Fri 02:01:37 PM 36.3750 -116.4889 314° West 423 487 28,100 1,790 Climbing Los Angeles Center
Fri 02:02:38 PM 36.4586 -116.6019 313° West 431 496 30,000 1,854 Climbing Los Angeles Center
Fri 02:03:40 PM 36.5431 -116.7147 313° West 437 503 31,900 1,680 Climbing Los Angeles Center
Fri 02:04:43 PM 36.6392 -116.8092 322° Northwest 438 504 33,500 1,008 Climbing Los Angeles Center
Fri 02:05:45 PM 36.7375 -116.8844 328° Northwest 429 494 34,000 242 Climbing Los Angeles Center
Fri 02:06:47 PM 36.8431 -116.9564 331° Northwest 423 487 34,000  Level Los Angeles Center
Fri 02:07:20 PM 36.9028 -117.0061 326° Northwest 426 490 34,000  Level Oakland Center
Fri 02:08:22 PM 37.0033 -117.0842 328° Northwest 426 490 34,000  Level Oakland Center
Fri 02:09:23 PM 37.1244 -117.1761 329° Northwest 423 487 34,000  Level Oakland Center
Fri 02:10:25 PM 37.2239 -117.2536 328° Northwest 421 484 34,000  Level Oakland Center
Fri 02:11:26 PM 37.3253 -117.3294 329° Northwest 421 484 34,000  Level Oakland Center
Fri 02:12:28 PM 37.4292 -117.3986 332° Northwest 421 484 34,000  Level Oakland Center
Fri 02:13:30 PM 37.5044 -117.5089 311° West 414 476 34,000  Level Oakland Center
Fri 02:14:31 PM 37.5767 -117.6236 308° West 415 478 34,000  Level Oakland Center
Fri 02:15:33 PM 37.6492 -117.7381 309° West 416 479 34,000  Level Oakland Center
Fri 02:16:34 PM 37.7217 -117.8525 309° West 415 478 34,000  Level Oakland Center
Fri 02:17:36 PM 37.7939 -117.9669 309° West 413 475 34,000  Level Oakland Center
Fri 02:18:38 PM 37.8650 -118.0817 308° West 414 476 34,000  Level Oakland Center
Fri 02:19:39 PM 37.9358 -118.1961 308° West 411 473 34,000 -439 Level Oakland Center
Fri 02:20:41 PM 38.0206 -118.3331 308° West 409 471 33,100 -919 Descending Oakland Center
Fri 02:21:43 PM 38.0881 -118.4425 308° West 396 456 32,100 -976 Descending Oakland Center
Fri 02:22:44 PM 38.1492 -118.5422 308° West 390 449 31,100 -976 Descending Oakland Center
Fri 02:23:46 PM 38.2147 -118.6492 308° West 384 442 30,100 -537 Descending Oakland Center
Fri 02:24:47 PM 38.2808 -118.7575 308° West 386 444 30,000 -49 Descending Oakland Center
Fri 02:25:49 PM 38.3594 -118.8864 308° West 383 441 30,000  Level Oakland Center
Fri 02:26:51 PM 38.4233 -118.9933 307° West 379 436 30,000  Level Oakland Center
Fri 02:27:52 PM 38.4872 -119.0983 308° West 375 432 30,000  Level Oakland Center
Fri 02:28:54 PM 38.5522 -119.2058 308° West 379 436 30,000  Level Oakland Center
Fri 02:29:56 PM 38.6161 -119.3128 307° West 378 435 30,000 -49 Level Oakland Center
Fri 02:30:57 PM 38.6789 -119.4197 307° West 377 434 29,900 -537 Descending Oakland Center
Fri 02:31:59 PM 38.7111 -119.5444 288° West 371 427 28,900 -968 Descending Oakland Center
Fri 02:33:01 PM 38.7356 -119.6717 284° West 367 422 27,900 -1,073 Descending Oakland Center
Fri 02:34:02 PM 38.7650 -119.8131 285° West 367 422 26,700 -1,024 Descending Oakland Center
Fri 02:35:04 PM 38.7894 -119.9367 284° West 363 418 25,800 -976 Descending Oakland Center
Fri 02:36:05 PM 38.8128 -120.0606 284° West 359 413 24,700 -1,024 Descending Oakland Center
Fri 02:37:07 PM 38.8369 -120.1839 284° West 358 412 23,700 -968 Descending Oakland Center
Fri 02:38:09 PM 38.8600 -120.3050 284° West 353 406 22,700 -976 Descending Oakland Center
Fri 02:39:10 PM 38.8831 -120.4239 284° West 347 399 21,700 -1,073 Descending Oakland Center
Fri 02:40:12 PM 38.9103 -120.5683 284° West 347 399 20,500 -1,073 Descending Oakland Center
Fri 02:41:13 PM 38.9333 -120.6869 284° West 345 397 19,500 -976 Descending Oakland Center
Fri 02:42:15 PM 38.9556 -120.8047 284° West 342 394 18,500 -871 Descending Oakland Center
Fri 02:43:17 PM 38.9786 -120.9217 284° West 341 392 17,700 -927 Descending Oakland Center
Fri 02:44:18 PM 38.9825 -121.0392 272° West 340 391 16,600 -1,393 Descending Oakland Center
Fri 02:45:09 PM 38.9500 -121.1500 249° West 326 375 15,100 -1,622 Descending Northern Cal TRACON
Fri 02:46:09 PM 38.9333 -121.2500 258° West 317 365 13,600 -1,537 Descending Northern Cal TRACON
Fri 02:47:10 PM 38.9000 -121.3500 247° West 313 360 12,000 -1,550 Descending Northern Cal TRACON
Fri 02:48:09 PM 38.8833 -121.4667 260° West 312 359 10,500 -1,563 Descending Northern Cal TRACON
Fri 02:49:09 PM 38.8667 -121.5667 258° West 298 343 8,900 -1,338 Descending Northern Cal TRACON
Fri 02:50:28 PM 38.8628 -121.6919 268° West 295 339 7,400 -1,029 Descending Oakland Center
Fri 02:51:29 PM 38.7897 -121.7200 197° South 278 320 6,500 -878 Descending Oakland Center
Fri 02:52:31 PM 38.7200 -121.7258 184° South 256 295 5,600 -1,024 Descending Oakland Center
Fri 02:53:32 PM 38.6433 -121.7189 176° South 233 268 4,400 -1,171 Descending Oakland Center
Fri 02:54:34 PM 38.6072 -121.6833 142° Southeast 193 222 3,200 -1,171 Descending Oakland Center
Fri 02:55:35 PM 38.6128 -121.6247 83° East 168 193 2,000 -1,294 Descending Oakland Center
Fri 02:56:16 PM 38.6333 -121.6000 43° Northeast 164 189 1,000 -1,069 Descending Northern Cal TRACON
Fri 02:57:16 PM 38.6667 -121.6000 360° North 147 169 200 -800 Descending Northern Cal TRACON

Login

Don't have an account? Register now (free) for customized features, flight alerts, and more!